When you browse on this site, cookies collect data to enhance your experience and personalize the content and advertising you see.
Visit our Privacy Policy to learn more. By continuing to use the site, you agree to this use of cookies and data.
  • In Switzerland
  • List of Countries
  • For 7 days
  • Water Temperature
  • Weather Map
  • Weather Widgets
  • user-avatar
    Login

    Hourly Weather Puzovo

    Today, 18 August, Sunday

    Time Temperature Precipitation Wind Pressure Humidity
    00:00 +14°C° 1 mm 3 mps 741 mmHg 98%
    01:00 +14°C° 1 mm 3 mps 741 mmHg 98%
    02:00 +15°C° 1 mm 2 mps 741 mmHg 99%
    03:00 +15°C° 1.2 mm 2 mps 740 mmHg 99%
    04:00 +14°C° 1.2 mm 3 mps 740 mmHg 98%
    05:00 +14°C° 1.2 mm 3 mps 740 mmHg 98%
    06:00 +14°C° 1.6 mm 3 mps 740 mmHg 98%
    07:00 +14°C° 1.6 mm 3 mps 740 mmHg 98%
    08:00 +13°C° 1.6 mm 3 mps 740 mmHg 97%
    09:00 +14°C° 1.5 mm 3 mps 740 mmHg 97%
    10:00 +14°C° 1.5 mm 3 mps 740 mmHg 97%
    11:00 +14°C° 1.5 mm 3 mps 741 mmHg 96%
    12:00 +14°C° 0.4 mm 3 mps 741 mmHg 96%
    13:00 +16°C° 0.4 mm 2 mps 741 mmHg 95%
    14:00 +16°C° 0.4 mm 2 mps 741 mmHg 94%
    15:00 +16°C° 0.1 mm 2 mps 742 mmHg 93%
    16:00 +17°C° 0.1 mm 2 mps 742 mmHg 92%
    17:00 +17°C° 0.1 mm 2 mps 742 mmHg 91%
    18:00 +17°C° 0 mm 2 mps 742 mmHg 92%
    19:00 +16°C° 0 mm 1 mps 743 mmHg 93%
    20:00 +15°C° 0 mm 1 mps 743 mmHg 94%
    21:00 +15°C° 0 mm 1 mps 743 mmHg 95%
    22:00 +14°C° 0 mm 1 mps 743 mmHg 95%
    23:00 +14°C° 0 mm 2 mps 743 mmHg 96%

    Tomorrow, 19 August, Monday

    Time Temperature Precipitation Wind Pressure Humidity
    00:00 +14°C° 0 mm 2 mps 744 mmHg 96%
    01:00 +14°C° 0 mm 2 mps 744 mmHg 96%
    02:00 +13°C° 0 mm 2 mps 744 mmHg 95%
    03:00 +13°C° 0 mm 2 mps 744 mmHg 95%
    04:00 +13°C° 0 mm 1 mps 744 mmHg 95%
    05:00 +13°C° 0 mm 1 mps 745 mmHg 95%
    06:00 +14°C° 0 mm 2 mps 745 mmHg 92%
    07:00 +16°C° 0 mm 2 mps 745 mmHg 89%
    08:00 +18°C° 0 mm 2 mps 745 mmHg 86%
    09:00 +19°C° 0 mm 3 mps 746 mmHg 80%
    10:00 +21°C° 0 mm 3 mps 746 mmHg 75%
    11:00 +22°C° 0 mm 3 mps 746 mmHg 69%
    12:00 +23°C° 0 mm 4 mps 746 mmHg 68%
    13:00 +25°C° 0 mm 4 mps 746 mmHg 67%
    14:00 +25°C° 0 mm 4 mps 746 mmHg 65%
    15:00 +25°C° 0 mm 4 mps 746 mmHg 69%
    16:00 +25°C° 0 mm 3 mps 746 mmHg 72%
    17:00 +25°C° 0 mm 3 mps 746 mmHg 75%
    18:00 +22°C° 0 mm 3 mps 746 mmHg 80%
    19:00 +21°C° 0 mm 3 mps 746 mmHg 85%
    20:00 +19°C° 0 mm 3 mps 746 mmHg 90%
    21:00 +19°C° 0 mm 3 mps 746 mmHg 91%
    22:00 +18°C° 0 mm 3 mps 746 mmHg 91%
    23:00 +18°C° 0 mm 3 mps 747 mmHg 91%

    Day after tomorrow, 20 August, Tuesday

    Time Temperature Precipitation Wind Pressure Humidity
    00:00 +18°C° 0 mm 3 mps 747 mmHg 93%
    01:00 +17°C° 0 mm 2 mps 747 mmHg 94%
    02:00 +17°C° 0 mm 2 mps 747 mmHg 95%
    03:00 +17°C° 0.3 mm 2 mps 747 mmHg 96%
    04:00 +17°C° 0.3 mm 2 mps 747 mmHg 96%
    05:00 +18°C° 0.3 mm 1 mps 747 mmHg 97%
    06:00 +18°C° 0.2 mm 2 mps 748 mmHg 95%
    07:00 +19°C° 0.2 mm 2 mps 748 mmHg 93%
    08:00 +21°C° 0.2 mm 2 mps 748 mmHg 92%
    09:00 +23°C° 0.1 mm 2 mps 748 mmHg 88%
    10:00 +24°C° 0.1 mm 2 mps 749 mmHg 84%
    11:00 +25°C° 0.1 mm 2 mps 749 mmHg 79%
    12:00 +25°C° 0.1 mm 2 mps 749 mmHg 79%
    13:00 +26°C° 0.1 mm 2 mps 749 mmHg 79%
    14:00 +26°C° 0.1 mm 2 mps 749 mmHg 78%
    15:00 +26°C° 0.7 mm 2 mps 749 mmHg 81%
    16:00 +25°C° 0.7 mm 2 mps 749 mmHg 84%
    17:00 +25°C° 0.7 mm 2 mps 749 mmHg 87%
    18:00 +23°C° 0.7 mm 2 mps 749 mmHg 89%
    19:00 +22°C° 0.7 mm 1 mps 749 mmHg 91%
    20:00 +21°C° 0.7 mm 1 mps 749 mmHg 93%
    21:00 +20°C° 0.1 mm 1 mps 749 mmHg 94%
    22:00 +20°C° 0.1 mm 1 mps 749 mmHg 94%
    23:00 +17°C° 0.1 mm 0 mps 749 mmHg 95%

    21 August, Wednesday

    Time Temperature Precipitation Wind Pressure Humidity
    00:00 +19°C° 0 mm 1 mps 750 mmHg 95%
    01:00 +19°C° 0 mm 1 mps 750 mmHg 95%
    02:00 +19°C° 0 mm 1 mps 750 mmHg 95%
    03:00 +18°C° 0 mm 1 mps 750 mmHg 95%
    04:00 +18°C° 0 mm 1 mps 750 mmHg 95%
    05:00 +18°C° 0 mm 1 mps 750 mmHg 95%
    06:00 +19°C° 0 mm 1 mps 750 mmHg 92%
    07:00 +21°C° 0 mm 1 mps 750 mmHg 90%
    08:00 +22°C° 0 mm 1 mps 750 mmHg 87%
    09:00 +23°C° 0 mm 1 mps 750 mmHg 82%
    10:00 +23°C° 0 mm 0 mps 750 mmHg 76%
    11:00 +24°C° 0 mm 0 mps 750 mmHg 71%
    12:00 +26°C° 0.7 mm 1 mps 750 mmHg 72%
    13:00 +26°C° 0.7 mm 1 mps 749 mmHg 72%
    14:00 +27°C° 0.7 mm 1 mps 749 mmHg 73%
    15:00 +26°C° 1.2 mm 1 mps 749 mmHg 77%
    16:00 +26°C° 1.2 mm 1 mps 748 mmHg 82%
    17:00 +25°C° 1.2 mm 1 mps 748 mmHg 86%
    18:00 +24°C° 0.2 mm 2 mps 748 mmHg 88%
    19:00 +23°C° 0.2 mm 2 mps 747 mmHg 90%
    20:00 +21°C° 0.2 mm 2 mps 747 mmHg 91%
    21:00 +20°C° 0.9 mm 2 mps 747 mmHg 93%
    22:00 +20°C° 0.9 mm 2 mps 747 mmHg 94%
    23:00 +19°C° 0.9 mm 2 mps 746 mmHg 96%

    22 August, Thursday

    Time Temperature Precipitation Wind Pressure Humidity
    00:00 +19°C° 0.6 mm 2 mps 746 mmHg 96%
    01:00 +19°C° 0.6 mm 2 mps 746 mmHg 96%
    02:00 +19°C° 0.6 mm 2 mps 747 mmHg 96%
    03:00 +18°C° 0.3 mm 3 mps 747 mmHg 96%
    04:00 +17°C° 0.3 mm 4 mps 747 mmHg 96%
    05:00 +15°C° 0.3 mm 5 mps 747 mmHg 96%
    06:00 +15°C° 0.1 mm 5 mps 747 mmHg 94%
    07:00 +15°C° 0.1 mm 5 mps 748 mmHg 93%
    08:00 +15°C° 0.1 mm 5 mps 748 mmHg 92%
    09:00 +16°C° 0 mm 5 mps 749 mmHg 85%
    10:00 +17°C° 0 mm 5 mps 749 mmHg 79%
    11:00 +19°C° 0 mm 5 mps 749 mmHg 73%
    12:00 +20°C° 0 mm 4 mps 749 mmHg 69%
    13:00 +21°C° 0 mm 4 mps 750 mmHg 65%
    14:00 +22°C° 0 mm 3 mps 750 mmHg 61%
    15:00 +22°C° 0 mm 3 mps 750 mmHg 64%
    16:00 +22°C° 0 mm 3 mps 750 mmHg 68%
    17:00 +21°C° 0 mm 2 mps 750 mmHg 72%
    18:00 +19°C° 0 mm 2 mps 750 mmHg 75%
    19:00 +18°C° 0 mm 2 mps 750 mmHg 79%
    20:00 +16°C° 0 mm 2 mps 750 mmHg 82%
    21:00 +15°C° 0 mm 2 mps 750 mmHg 84%
    22:00 +15°C° 0 mm 2 mps 751 mmHg 86%
    23:00 +14°C° 0 mm 2 mps 751 mmHg 88%

    23 August, Friday

    Time Temperature Precipitation Wind Pressure Humidity
    00:00 +13°C° 0 mm 2 mps 751 mmHg 90%
    01:00 +13°C° 0 mm 2 mps 751 mmHg 91%
    02:00 +12°C° 0 mm 2 mps 751 mmHg 93%
    03:00 +12°C° 0 mm 2 mps 751 mmHg 93%
    04:00 +12°C° 0 mm 2 mps 751 mmHg 93%
    05:00 +10°C° 0 mm 2 mps 751 mmHg 94%
    06:00 +13°C° 0 mm 1 mps 751 mmHg 88%
    07:00 +15°C° 0 mm 1 mps 751 mmHg 82%
    08:00 +18°C° 0 mm 1 mps 751 mmHg 76%
    09:00 +19°C° 0 mm 1 mps 751 mmHg 71%
    10:00 +19°C° 0 mm 2 mps 751 mmHg 65%
    11:00 +20°C° 0 mm 2 mps 751 mmHg 60%
    12:00 +20°C° 0 mm 2 mps 751 mmHg 60%
    13:00 +20°C° 0 mm 2 mps 751 mmHg 60%
    14:00 +20°C° 0 mm 2 mps 751 mmHg 60%
    15:00 +20°C° 0.1 mm 2 mps 751 mmHg 66%
    16:00 +19°C° 0.1 mm 2 mps 751 mmHg 72%
    17:00 +18°C° 0.1 mm 2 mps 750 mmHg 78%
    18:00 +17°C° 0.1 mm 2 mps 750 mmHg 82%
    19:00 +16°C° 0.1 mm 2 mps 750 mmHg 85%
    20:00 +14°C° 0.1 mm 2 mps 750 mmHg 89%
    21:00 +14°C° 0 mm 2 mps 751 mmHg 91%
    22:00 +13°C° 0 mm 2 mps 751 mmHg 92%
    23:00 +12°C° 0 mm 2 mps 751 mmHg 94%
    Show more